Location: Sungai Dangang
(2.7500°N, 113.8333°E)
Time: 15:53:56
(UTC+00:00)

Ariane H10+ - Visible Passes

Search period start: 25 September 2021 00:00
Search period end: 05 October 2021 00:00
Orbit: 236 x 7795 km, 6.8° (Epoch: 25 September)

Date Brightness Start Highest point End Pass type
(mag) Time Alt. Az. Time Alt. Az. Time Alt. Az.
25 Sep 3.2 11:50:25 10° WSW 11:51:17 15° SW 11:51:17 15° SW visible
25 Sep 5.3 18:13:24 49° ESE 18:13:24 49° ESE 18:39:12 10° E visible
25 Sep 5.6 21:09:05 18° WSW 21:29:56 82° S 22:30:27 10° E visible
26 Sep 1.7 11:12:36 10° W 11:16:07 30° SSW 11:17:01 23° SSE visible
26 Sep 5.7 17:38:50 32° ESE 17:38:50 32° ESE 17:53:35 10° E visible
26 Sep 5.2 20:34:30 31° WSW 20:48:09 79° S 21:45:27 10° E visible
27 Sep 2.0 10:33:48 10° W 10:39:33 44° SSW 10:42:06 10° ESE visible
27 Sep 6.2 17:04:06 18° ESE 17:04:06 18° ESE 17:09:31 10° E visible
27 Sep 4.9 19:59:44 47° WSW 20:07:24 76° S 20:58:44 10° E visible
28 Sep 4.6 19:24:48 65° SSW 19:27:29 72° SSE 20:10:51 10° E visible
29 Sep 4.8 18:49:40 65° SE 18:49:40 65° SE 19:22:46 10° E visible
29 Sep 5.8 21:46:11 10° W 22:11:12 88° S 23:12:13 10° E visible
30 Sep 3.2 11:52:05 10° WSW 11:53:34 16° SW 11:53:34 16° SW visible
30 Sep 5.2 18:14:22 46° ESE 18:14:22 46° ESE 18:35:32 10° E visible
30 Sep 5.5 21:09:56 18° W 21:27:55 85° S 22:26:51 10° E visible
01 Oct 2.4 11:12:35 10° WSW 11:16:57 27° SSW 11:18:18 19° SSE visible
01 Oct 5.7 17:38:52 28° ESE 17:38:52 28° ESE 17:49:46 10° E visible
01 Oct 5.0 20:34:25 32° WSW 20:45:49 83° S 21:39:40 10° E visible
02 Oct 2.8 10:32:01 10° W 10:39:16 40° SSW 10:42:17 10° SE visible
02 Oct 6.2 17:03:12 14° E 17:03:12 14° E 17:05:36 10° E visible
02 Oct 4.6 19:58:44 51° WSW 20:04:40 80° S 20:51:04 10° E visible
03 Oct 4.4 19:22:51 72° SSW 19:24:15 75° SSE 20:01:53 10° E visible
04 Oct 4.6 18:46:46 62° ESE 18:46:46 62° ESE 19:13:17 10° E visible
04 Oct 5.6 21:42:53 10° W 22:04:02 89° N 23:03:52 10° E visible
